DW5826 Torrelavega ES current weather conditions

sailwx.info

Wind from 172 at 0 knots gusting 2

Air temperature 12.8° C
Dewpoint 8.5° C

Last reported at 2019-Dec-10 23:01 UTC.
Time now 2019-Dec-10 23:47 UTC

Location: N 43°21' W 004°03'.
View on Google Maps.

See reports from other nearby stations

  
Tides and Currents Weather Stations Pressure Air Temp Water Temp Dewpoint Dewpoint Depression Visibility Wind Speed Wind Dir Waves Ship Positions
date/time (UTC)wind fromknots sea level pressurealtimeterstation pressurevisibilityair tempwater tempwave heightnotes
2019-Dec-10 23:01 172 0 gusting 2 12.8
2019-Dec-10 22:56 151 12.8
2019-Dec-10 22:51 194 12.8
2019-Dec-10 22:46 194 12.8
2019-Dec-10 22:41 188 0 gusting 5 12.8
2019-Dec-10 22:31 197 0 gusting 4 13.3
2019-Dec-10 22:26 198 13.3
2019-Dec-10 22:21 145 13.3
2019-Dec-10 22:16 228 13.3
2019-Dec-10 22:11 168 13.3
2019-Dec-10 22:06 204 0 gusting 5 13.3
2019-Dec-10 22:01 212 0 gusting 5 13.3
2019-Dec-10 21:56 235 0 gusting 5 13.3
2019-Dec-10 21:51 197 13.3
2019-Dec-10 21:46 204 13.3
2019-Dec-10 21:36 199 0 gusting 5 13.3
2019-Dec-10 21:31 195 1 gusting 5 13.3
2019-Dec-10 21:26 187 0 gusting 4 13.3
2019-Dec-10 21:21 186 1 gusting 4 13.3
2019-Dec-10 21:16 175 13.3
2019-Dec-10 21:11 203 13.3
2019-Dec-10 21:01 161 13.9
2019-Dec-10 20:56 198 0 gusting 5 13.9
2019-Dec-10 20:46 220 0 gusting 5 14.4
2019-Dec-10 20:41 275 14.4
2019-Dec-10 20:36 181 0 gusting 6 14.4
2019-Dec-10 20:31 204 0 gusting 7 14.4
2019-Dec-10 20:26 174 2 gusting 7 14.4
2019-Dec-10 20:21 181 5 gusting 7 14.4
2019-Dec-10 20:16 167 1 gusting 6 14.4
2019-Dec-10 20:11 175 2 gusting 6 15.0
2019-Dec-10 20:06 182 3 gusting 6 15.0
2019-Dec-10 19:56 -0.0
2019-Dec-10 19:41 208 1 gusting 7 14.4
2019-Dec-10 19:36 235 1 gusting 7 14.4
2019-Dec-10 19:31 203 2 gusting 6 14.4
2019-Dec-10 19:26 216 1 gusting 7 14.4
2019-Dec-10 19:16 167 3 gusting 8 15.0
2019-Dec-10 19:06 230 3 gusting 6 15.0
2019-Dec-10 19:01 212 2 gusting 6 15.0
2019-Dec-10 18:51 213 2 gusting 7 15.0
2019-Dec-10 18:41 188 2 gusting 7 15.0
2019-Dec-10 18:36 057 2 gusting 6 15.0
2019-Dec-10 18:31 159 1 gusting 6 15.6
2019-Dec-10 18:26 200 2 gusting 6 15.6
2019-Dec-10 18:21 205 2 gusting 6 15.6
2019-Dec-10 18:16 244 1 gusting 7 15.6
2019-Dec-10 18:11 221 1 gusting 7 15.6
2019-Dec-10 18:06 224 2 gusting 7 15.0
2019-Dec-10 18:01 181 0 gusting 6 15.6
2019-Dec-10 17:56 170 1 gusting 7 15.6
2019-Dec-10 17:51 195 0 gusting 7 15.6
2019-Dec-10 17:46 209 1 gusting 6 15.6
2019-Dec-10 17:41 186 1 gusting 6 15.6
2019-Dec-10 17:36 221 2 gusting 6 15.6
2019-Dec-10 17:31 235 1 gusting 5 15.6
2019-Dec-10 17:26 244 0 gusting 6 15.6
2019-Dec-10 17:16 184 4 gusting 8 16.1
2019-Dec-10 17:11 166 2 gusting 8 16.1
2019-Dec-10 17:06 195 2 gusting 8 15.6
2019-Dec-10 17:01 200 1 gusting 8 16.1
2019-Dec-10 16:56 197 2 gusting 7 16.1
2019-Dec-10 16:36 208 2 gusting 7 16.1
2019-Dec-10 16:31 173 2 gusting 10 16.1
2019-Dec-10 16:26 190 4 gusting 10 16.1
2019-Dec-10 16:21 183 2 gusting 7 16.1
2019-Dec-10 16:16 191 0 gusting 5 16.1
2019-Dec-10 16:11 195 1 gusting 6 16.1
2019-Dec-10 16:06 191 1 gusting 6 16.1
2019-Dec-10 16:01 168 0 gusting 5 16.1
2019-Dec-10 15:56 178 2 gusting 6 16.1
2019-Dec-10 15:51 199 0 gusting 6 16.1
2019-Dec-10 15:46 186 1 gusting 6 16.1
2019-Dec-10 15:41 183 0 gusting 5 16.1
2019-Dec-10 15:36 201 1 gusting 5 16.1
2019-Dec-10 15:31 199 0 gusting 4 16.1
2019-Dec-10 15:26 203 0 gusting 5 16.1
2019-Dec-10 15:21 210 1 gusting 5 16.1
2019-Dec-10 15:16 225 0 gusting 5 16.1
2019-Dec-10 15:11 221 1 gusting 5 16.1
2019-Dec-10 15:06 234 0 gusting 5 16.1
2019-Dec-10 15:01 224 0 gusting 6 16.7
2019-Dec-10 14:56 234 1 gusting 6 16.7
2019-Dec-10 14:51 205 1 gusting 6 16.7
2019-Dec-10 14:46 211 1 gusting 6 16.7
2019-Dec-10 14:41 236 1 gusting 6 16.7
2019-Dec-10 14:36 243 0 gusting 6 16.7
2019-Dec-10 14:31 211 2 gusting 6 16.7
2019-Dec-10 14:26 219 1 gusting 6 16.7
2019-Dec-10 14:21 215 1 gusting 5 16.7
2019-Dec-10 14:16 192 16.7
2019-Dec-10 14:11 204 0 gusting 5 16.1
2019-Dec-10 14:06 202 1 gusting 5 16.1
2019-Dec-10 14:01 195 16.1
2019-Dec-10 13:56 177 1 gusting 6 16.1
2019-Dec-10 13:51 169 1 gusting 6 16.1
2019-Dec-10 13:46 198 0 gusting 6 16.1
2019-Dec-10 13:41 164 1 gusting 6 16.1
2019-Dec-10 13:36 221 1 gusting 6 16.1
2019-Dec-10 13:31 196 0 gusting 6 16.1
2019-Dec-10 13:26 189 16.1
2019-Dec-10 13:21 165 2 gusting 6 16.1
2019-Dec-10 13:16 203 0 gusting 5 16.1
2019-Dec-10 13:11 211 15.6
2019-Dec-10 13:06 192 15.6
2019-Dec-10 13:01 155 15.0
2019-Dec-10 12:56 169 15.6
2019-Dec-10 12:51 148 15.0
2019-Dec-10 12:46 180 15.0
2019-Dec-10 12:41 195 1 gusting 5 15.0
2019-Dec-10 12:36 202 1 gusting 6 15.0
2019-Dec-10 12:31 158 0 gusting 6 15.0
2019-Dec-10 12:26 225 4 gusting 6 14.4
2019-Dec-10 12:21 199 2 gusting 5 14.4
2019-Dec-10 12:16 195 0 gusting 6 14.4
2019-Dec-10 12:11 227 0 gusting 7 14.4
2019-Dec-10 12:06 264 4 gusting 7 14.4
2019-Dec-10 12:01 232 2 gusting 6 14.4
2019-Dec-10 11:56 226 0 gusting 6 14.4
2019-Dec-10 11:51 210 3 gusting 6 13.9
2019-Dec-10 11:46 213 2 gusting 8 13.9
2019-Dec-10 11:41 223 5 gusting 8 13.9
2019-Dec-10 11:36 212 4 gusting 8 13.3
2019-Dec-10 11:31 230 4 gusting 8 13.3
2019-Dec-10 11:26 223 3 gusting 6 13.3
2019-Dec-10 11:21 217 0 gusting 4 13.3
2019-Dec-10 11:16 188 0 gusting 4 12.8
2019-Dec-10 11:11 200 0 gusting 5 12.8
2019-Dec-10 11:06 184 0 gusting 5 12.8
2019-Dec-10 11:01 173 12.8
2019-Dec-10 10:56 222 12.8
2019-Dec-10 10:51 165 12.2
2019-Dec-10 10:46 197 12.2
2019-Dec-10 10:41 188 11.7
2019-Dec-10 10:36 156 11.7
2019-Dec-10 10:31 044 12.2
2019-Dec-10 10:26 165 12.2
2019-Dec-10 10:21 113 11.7
2019-Dec-10 10:16 100 11.1
2019-Dec-10 10:11 029 10.6
2019-Dec-10 10:06 025 11.1
2019-Dec-10 10:01 039 11.1
2019-Dec-10 09:56 071 10.6
2019-Dec-10 09:51 184 10.0
2019-Dec-10 09:46 197 10.0
2019-Dec-10 09:41 277 10.0
2019-Dec-10 09:36 215 9.4
2019-Dec-10 09:31 179 0 gusting 2 9.4
2019-Dec-10 09:26 174 9.4
2019-Dec-10 09:21 148 8.9
2019-Dec-10 09:16 204 8.9
2019-Dec-10 09:11 216 8.9
2019-Dec-10 09:06 188 8.9
2019-Dec-10 09:01 162 8.3
2019-Dec-10 08:56 237 8.3
2019-Dec-10 08:51 184 8.3
2019-Dec-10 08:46 175 7.8
2019-Dec-10 08:41 188 7.8
2019-Dec-10 08:36 167 0 gusting 2 7.8
2019-Dec-10 08:31 193 7.8
2019-Dec-10 08:26 207 7.8
2019-Dec-10 08:21 283 7.8
2019-Dec-10 08:16 214 1 gusting 5 7.8
2019-Dec-10 08:11 224 7.8
2019-Dec-10 08:06 205 7.8
2019-Dec-10 08:01 178 7.8
2019-Dec-10 07:56 153 0 gusting 4 7.8
2019-Dec-10 07:51 169 7.2
2019-Dec-10 07:46 182 0 gusting 5 7.2
2019-Dec-10 07:41 178 7.2
2019-Dec-10 07:36 159 7.2
2019-Dec-10 07:31 193 7.2
2019-Dec-10 07:26 191 7.2
2019-Dec-10 07:21 216 7.2
2019-Dec-10 07:16 212 7.2
2019-Dec-10 07:11 182 7.2
2019-Dec-10 07:06 166 7.2
2019-Dec-10 07:01 171 0 gusting 1 7.2
2019-Dec-10 06:56 223 7.2
2019-Dec-10 06:51 186 7.2
2019-Dec-10 06:46 007 7.2
2019-Dec-10 06:41 050 7.2
2019-Dec-10 06:36 282 7.2
2019-Dec-10 06:31 202 7.8
2019-Dec-10 06:26 075 7.8
2019-Dec-10 06:21 224 7.8
2019-Dec-10 06:16 126 7.8
2019-Dec-10 06:11 117 7.8
2019-Dec-10 06:06 119 7.8
2019-Dec-10 06:01 172 7.8
2019-Dec-10 05:56 192 8.3
2019-Dec-10 05:51 158 8.3
2019-Dec-10 05:46 204 8.3
2019-Dec-10 05:41 190 8.3
2019-Dec-10 05:36 255 8.3
2019-Dec-10 05:31 274 8.3
2019-Dec-10 05:26 193 7.8
2019-Dec-10 05:21 179 7.8
2019-Dec-10 05:16 177 7.8
2019-Dec-10 05:11 202 7.8
2019-Dec-10 05:06 180 7.8
2019-Dec-10 05:01 172 7.8
2019-Dec-10 04:56 194 7.8
2019-Dec-10 04:51 207 7.8
2019-Dec-10 04:46 151 7.8
2019-Dec-10 04:41 210 0 gusting 5 7.8
2019-Dec-10 04:36 194 0 gusting 5 7.8
2019-Dec-10 04:31 220 7.8
2019-Dec-10 04:26 151 7.8
2019-Dec-10 04:21 209 7.8
2019-Dec-10 04:16 182 8.3
2019-Dec-10 04:11 208 0 gusting 4 8.3
2019-Dec-10 04:06 202 8.3
2019-Dec-10 04:01 200 8.3
2019-Dec-10 03:56 202 0 gusting 2 8.3
2019-Dec-10 03:51 195 8.3
2019-Dec-10 03:46 187 8.3
2019-Dec-10 03:41 193 0 gusting 1 8.3
2019-Dec-10 03:36 181 8.9
2019-Dec-10 03:31 167 8.9
2019-Dec-10 03:26 168 8.9
2019-Dec-10 03:21 248 8.9
2019-Dec-10 03:16 227 8.9
2019-Dec-10 03:11 163 8.9
2019-Dec-10 03:06 158 8.9
2019-Dec-10 03:01 067 8.9
2019-Dec-10 02:56 069 8.9
2019-Dec-10 02:51 179 9.4
2019-Dec-10 02:46 185 9.4
2019-Dec-10 02:41 184 9.4
2019-Dec-10 02:36 180 9.4
2019-Dec-10 02:31 193 9.4
2019-Dec-10 02:26 195 9.4
2019-Dec-10 02:21 190 0 gusting 4 9.4
2019-Dec-10 02:16 217 9.4
2019-Dec-10 02:11 218 9.4
2019-Dec-10 02:06 218 9.4
2019-Dec-10 02:01 337 9.4
2019-Dec-10 01:56 180 9.4
2019-Dec-10 01:51 051 9.4
2019-Dec-10 01:46 036 9.4
2019-Dec-10 01:41 355 10.0
2019-Dec-10 01:36 254 10.0
2019-Dec-10 01:31 178 10.0
2019-Dec-10 01:26 357 10.0
2019-Dec-10 01:21 242 10.0
2019-Dec-10 01:16 10.0
2019-Dec-10 01:11 214 10.0
2019-Dec-10 01:06 217 10.0
2019-Dec-10 01:01 201 10.0
2019-Dec-10 00:56 169 10.0
2019-Dec-10 00:51 292 10.0
2019-Dec-10 00:46 284 10.0
2019-Dec-10 00:41 180 10.0
2019-Dec-10 00:36 292 10.0
2019-Dec-10 00:31 292 10.0
2019-Dec-10 00:26 251 10.0
2019-Dec-10 00:21 181 10.6
2019-Dec-10 00:16 179 10.6
2019-Dec-10 00:11 163 10.6
2019-Dec-10 00:06 159 10.6
2019-Dec-10 00:01 192 10.6
2019-Dec-09 23:56 174 10.6
2019-Dec-09 23:51 180 10.6
2019-Dec-09 23:46 153 10.6
2019-Dec-09 23:41 230 10.6
2019-Dec-09 23:36 200 10.6
2019-Dec-09 23:31 179 10.6
2019-Dec-09 23:26 183 10.6
2019-Dec-09 23:21 178 10.6
2019-Dec-09 23:16 260 10.6
2019-Dec-09 23:11 189 10.6
2019-Dec-09 23:06 235 10.6
2019-Dec-09 23:01 233 10.6
2019-Dec-09 22:56 202 10.6
2019-Dec-09 22:51 164 10.6
2019-Dec-09 22:46 187 10.6
2019-Dec-09 22:41 162 10.6
2019-Dec-09 22:36 191 10.6
2019-Dec-09 22:31 180 10.6
2019-Dec-09 22:26 240 10.6
2019-Dec-09 22:21 139 10.6
2019-Dec-09 22:16 195 11.1
2019-Dec-09 22:11 202 11.1
2019-Dec-09 22:06 158 11.1
2019-Dec-09 22:01 187 11.1
2019-Dec-09 21:56 272 11.1
2019-Dec-09 21:51 208 11.1
2019-Dec-09 21:46 196 11.1
2019-Dec-09 21:41 302 11.1
2019-Dec-09 21:36 218 11.1
2019-Dec-09 21:31 171 11.1
2019-Dec-09 21:26 191 11.1
2019-Dec-09 21:21 183 11.1
2019-Dec-09 21:16 196 11.1
2019-Dec-09 21:11 200 11.1
2019-Dec-09 21:06 208 11.1
2019-Dec-09 21:01 010 11.1
2019-Dec-09 20:56 258 11.1
2019-Dec-09 20:51 217 11.1
2019-Dec-09 20:46 264 11.1
2019-Dec-09 20:41 206 0 gusting 2 11.1
2019-Dec-09 20:36 199 11.1
2019-Dec-09 20:31 189 11.1
2019-Dec-09 20:26 184 11.7
2019-Dec-09 20:21 194 11.7
2019-Dec-09 20:16 160 11.7
2019-Dec-09 20:11 221 11.7
2019-Dec-09 20:06 208 11.7
2019-Dec-09 20:01 206 11.7
2019-Dec-09 19:56 193 11.7
2019-Dec-09 19:51 194 11.7
2019-Dec-09 19:46 162 11.7
2019-Dec-09 19:41 143 11.7
2019-Dec-09 19:36 193 0 gusting 4 11.7
2019-Dec-09 19:31 159 11.7
2019-Dec-09 19:26 180 12.2
2019-Dec-09 19:21 175 12.2
2019-Dec-09 19:16 195 12.2
2019-Dec-09 19:11 228 12.2
2019-Dec-09 19:06 198 12.8
2019-Dec-09 19:01 208 12.8
2019-Dec-09 18:56 240 12.8
2019-Dec-09 18:51 248 12.8
2019-Dec-09 18:46 295 12.8
2019-Dec-09 18:41 273 0 gusting 4 12.8
2019-Dec-09 18:36 283 12.8
2019-Dec-09 18:31 329 13.3
2019-Dec-09 18:26 326 0 gusting 6 13.3
2019-Dec-09 18:21 004 0 gusting 6 13.3
2019-Dec-09 18:16 345 1 gusting 6 12.8
2019-Dec-09 18:11 353 3 gusting 5 12.8
2019-Dec-09 18:06 336 0 gusting 5 12.8
2019-Dec-09 18:01 347 0 gusting 5 12.8
2019-Dec-09 17:56 338 12.8
2019-Dec-09 17:51 310 12.8
2019-Dec-09 17:46 321 0 gusting 6 12.8
2019-Dec-09 17:40 330 3 gusting 10 12.8
2019-Dec-09 17:31 353 1 gusting 6 12.8
2019-Dec-09 17:26 346 0 gusting 6 12.8
2019-Dec-09 17:21 332 0 gusting 5 12.8
2019-Dec-09 17:16 356 2 gusting 5 12.8
2019-Dec-09 17:11 002 0 gusting 6 12.8
2019-Dec-09 17:06 353 0 gusting 6 12.8
2019-Dec-09 17:01 321 12.8
2019-Dec-09 16:56 358 1 gusting 6 12.8
2019-Dec-09 16:51 351 1 gusting 7 12.8
2019-Dec-09 16:46 349 3 gusting 7 12.8
2019-Dec-09 16:41 13.3
2019-Dec-09 16:36 339 0 gusting 6 13.3
2019-Dec-09 16:31 356 1 gusting 6 13.3
2019-Dec-09 16:26 027 0 gusting 7 13.3
2019-Dec-09 16:21 323 2 gusting 7 13.3
2019-Dec-09 16:16 329 1 gusting 7 13.3
2019-Dec-09 16:11 019 4 gusting 7 13.3
2019-Dec-09 16:06 339 1 gusting 8 13.3
2019-Dec-09 16:01 354 6 gusting 11 13.3
2019-Dec-09 15:56 331 7 gusting 11 13.3
2019-Dec-09 15:51 349 4 gusting 10 13.3
2019-Dec-09 15:46 005 1 gusting 13 13.3
2019-Dec-09 15:41 324 8 gusting 13 13.3
2019-Dec-09 15:36 341 6 gusting 12 13.3
2019-Dec-09 15:31 332 1 gusting 11 13.3
2019-Dec-09 15:26 328 3 gusting 11 13.3
2019-Dec-09 15:21 328 1 gusting 7 13.3
2019-Dec-09 15:16 341 4 gusting 7 13.3
2019-Dec-09 15:11 340 5 gusting 13 13.3
2019-Dec-09 15:06 346 6 gusting 13 13.3
2019-Dec-09 15:01 317 8 gusting 13 13.3
2019-Dec-09 14:56 336 4 gusting 13 13.3
2019-Dec-09 14:51 329 7 gusting 13 13.3
2019-Dec-09 14:46 341 2 gusting 13 13.3
2019-Dec-09 14:41 337 6 gusting 14 13.3
2019-Dec-09 14:36 314 12 gusting 14 13.3
2019-Dec-09 14:31 318 9 gusting 17 13.3
2019-Dec-09 14:26 339 10 gusting 18 13.3
2019-Dec-09 14:21 330 11 gusting 18 13.3
2019-Dec-09 14:16 335 6 gusting 11 13.3
2019-Dec-09 14:11 342 1 gusting 11 13.9
2019-Dec-09 14:06 338 5 gusting 17 13.9
2019-Dec-09 14:01 336 8 gusting 17 13.9
2019-Dec-09 13:56 324 11 gusting 17 13.9
2019-Dec-09 13:51 315 6 gusting 13 13.9
2019-Dec-09 13:46 308 7 gusting 13 13.9
2019-Dec-09 13:41 311 7 gusting 19 13.9
2019-Dec-09 13:36 316 10 gusting 19 13.9
2019-Dec-09 13:31 333 7 gusting 18 13.9
2019-Dec-09 13:26 326 5 gusting 14 13.9
2019-Dec-09 13:21 336 6 gusting 19 13.9
2019-Dec-09 13:16 341 9 gusting 20 13.9
2019-Dec-09 13:11 353 9 gusting 20 13.9
2019-Dec-09 13:06 313 8 gusting 17 13.9
2019-Dec-09 13:01 279 8 gusting 17 13.9
2019-Dec-09 12:56 321 6 gusting 13 13.9
2019-Dec-09 12:51 329 6 gusting 15 13.9
2019-Dec-09 12:46 336 7 gusting 19 13.9
2019-Dec-09 12:41 328 11 gusting 19 13.9
2019-Dec-09 12:36 304 11 gusting 14 13.3
2019-Dec-09 12:31 338 7 gusting 15 13.3
2019-Dec-09 12:26 321 7 gusting 15 13.3
2019-Dec-09 12:21 295 6 gusting 15 13.3
2019-Dec-09 12:16 355 6 gusting 17 13.3
2019-Dec-09 12:11 348 9 gusting 21 13.3
2019-Dec-09 12:06 328 10 gusting 24 13.3
2019-Dec-09 12:01 341 14 gusting 24 13.3
2019-Dec-09 11:56 338 6 gusting 20 13.9
2019-Dec-09 11:51 320 8 gusting 20 13.3
2019-Dec-09 11:46 336 7 gusting 20 13.3
2019-Dec-09 11:41 334 10 gusting 18 13.3
2019-Dec-09 11:36 333 10 gusting 21 13.3
2019-Dec-09 11:31 352 10 gusting 21 13.3
2019-Dec-09 11:26 329 12 gusting 21 13.9
2019-Dec-09 11:21 331 10 gusting 26 13.9
2019-Dec-09 11:16 326 11 gusting 26 13.9
2019-Dec-09 11:11 338 12 gusting 26 13.9
2019-Dec-09 11:06 337 11 gusting 19 13.9
2019-Dec-09 11:01 319 6 gusting 17 13.9
2019-Dec-09 10:56 349 7 gusting 17 13.9
2019-Dec-09 10:51 330 10 gusting 17 13.9
2019-Dec-09 10:46 337 9 gusting 14 13.9
2019-Dec-09 10:41 337 6 gusting 13 13.9
2019-Dec-09 10:36 339 6 gusting 13 13.9
2019-Dec-09 10:31 325 4 gusting 10 13.9
2019-Dec-09 10:26 336 5 gusting 13 13.9
2019-Dec-09 10:21 342 6 gusting 13 13.9
2019-Dec-09 10:16 334 6 gusting 14 13.9
2019-Dec-09 10:11 328 8 gusting 14 13.9
2019-Dec-09 10:06 314 5 gusting 14 13.9
2019-Dec-09 10:01 342 8 gusting 14 13.9
2019-Dec-09 09:56 334 7 gusting 13 13.9
2019-Dec-09 09:51 311 7 gusting 14 13.9
2019-Dec-09 09:46 299 6 gusting 14 13.9
2019-Dec-09 09:41 351 6 gusting 13 13.9
2019-Dec-09 09:36 302 6 gusting 18 13.9
2019-Dec-09 09:31 313 7 gusting 18 13.9
2019-Dec-09 09:26 316 5 gusting 14 13.9
2019-Dec-09 09:21 338 7 gusting 13 13.9
2019-Dec-09 09:16 343 4 gusting 11 13.9
2019-Dec-09 09:11 305 6 gusting 11 13.9
2019-Dec-09 09:06 337 6 gusting 11 13.9
2019-Dec-09 09:01 306 6 gusting 7 13.9
2019-Dec-09 08:56 292 1 gusting 13 13.9
2019-Dec-09 08:51 332 6 gusting 13 13.9
2019-Dec-09 08:46 339 6 gusting 11 13.9
2019-Dec-09 08:41 330 5 gusting 12 13.9
2019-Dec-09 08:36 308 6 gusting 12 13.9
2019-Dec-09 08:31 327 6 gusting 14 13.9
2019-Dec-09 08:26 304 4 gusting 14 13.9
2019-Dec-09 08:21 292 6 gusting 14 13.9
2019-Dec-09 08:16 314 3 gusting 13 13.9
2019-Dec-09 08:11 295 5 gusting 11 13.3
2019-Dec-09 08:06 302 5 gusting 11 13.9
2019-Dec-09 08:01 310 7 gusting 11 13.3
2019-Dec-09 07:56 336 2 gusting 11 13.3
2019-Dec-09 07:51 313 6 gusting 11 13.3
2019-Dec-09 07:46 303 6 gusting 12 13.3
2019-Dec-09 07:41 278 4 gusting 13 13.3
2019-Dec-09 07:36 320 5 gusting 13 13.3
2019-Dec-09 07:31 302 6 gusting 13 13.3
2019-Dec-09 07:26 325 4 gusting 11 13.3
2019-Dec-09 07:21 301 6 gusting 11 13.3
2019-Dec-09 07:16 321 4 gusting 13 13.3
2019-Dec-09 07:11 319 8 gusting 13 13.3
2019-Dec-09 07:06 294 4 gusting 12 13.3
2019-Dec-09 07:01 305 5 gusting 12 13.3
2019-Dec-09 06:56 295 7 gusting 13 13.3
2019-Dec-09 06:51 296 5 gusting 14 13.3
2019-Dec-09 06:46 313 7 gusting 14 13.3
2019-Dec-09 06:41 307 6 gusting 14 13.3
2019-Dec-09 06:36 313 8 gusting 14 13.3
2019-Dec-09 06:31 322 6 gusting 13 13.3
2019-Dec-09 06:26 288 7 gusting 13 13.3
2019-Dec-09 06:21 324 8 gusting 12 13.3
2019-Dec-09 06:16 317 5 gusting 12 13.3
2019-Dec-09 06:11 284 5 gusting 11 12.8
2019-Dec-09 06:06 290 4 gusting 11 12.8
2019-Dec-09 06:01 286 2 gusting 11 12.8
2019-Dec-09 05:56 320 0 gusting 8 12.8
2019-Dec-09 05:51 330 5 gusting 11 12.8
2019-Dec-09 05:46 292 6 gusting 11 12.8
2019-Dec-09 05:41 308 6 gusting 11 12.8
2019-Dec-09 05:36 317 6 gusting 12 12.8
2019-Dec-09 05:31 296 5 gusting 13 12.8
2019-Dec-09 05:26 290 7 gusting 13 12.2
2019-Dec-09 05:21 320 6 gusting 13 12.8
2019-Dec-09 05:16 305 7 gusting 13 12.2
2019-Dec-09 05:11 314 6 gusting 12 12.2
2019-Dec-09 05:06 293 5 gusting 13 12.2
2019-Dec-09 05:01 313 6 gusting 13 12.2
2019-Dec-09 04:56 322 7 gusting 17 12.2
2019-Dec-09 04:51 322 8 gusting 17 12.2
2019-Dec-09 04:46 298 6 gusting 13 12.2
2019-Dec-09 04:41 292 6 gusting 13 12.2
2019-Dec-09 04:36 306 7 gusting 13 11.7
2019-Dec-09 04:31 299 2 gusting 10 10.6
2019-Dec-09 04:26 226 0 gusting 6 10.0
2019-Dec-09 04:21 195 10.0
2019-Dec-09 04:16 245 9.4
2019-Dec-09 04:11 181 10.0
2019-Dec-09 04:06 205 9.4
2019-Dec-09 04:01 182 9.4
2019-Dec-09 03:56 210 0 gusting 4 9.4
2019-Dec-09 03:51 318 9.4
2019-Dec-09 03:46 177 9.4
2019-Dec-09 03:41 296 0 gusting 2 8.9
2019-Dec-09 03:36 172 0 gusting 2 8.9
2019-Dec-09 03:31 151 8.3
2019-Dec-09 03:26 173 8.3
2019-Dec-09 03:21 178 8.3
2019-Dec-09 03:16 180 8.3
2019-Dec-09 03:11 212 0 gusting 1 8.3
2019-Dec-09 03:06 199 8.3
2019-Dec-09 03:01 195 8.3
2019-Dec-09 02:56 174 8.3
2019-Dec-09 02:51 240 0 gusting 6 8.3
2019-Dec-09 02:46 204 2 gusting 6 8.9
2019-Dec-09 02:41 170 0 gusting 4 8.9
2019-Dec-09 02:36 199 8.9
2019-Dec-09 02:31 165 8.9
2019-Dec-09 02:26 165 0 gusting 4 8.9
2019-Dec-09 02:21 174 9.4
2019-Dec-09 02:16 212 9.4
2019-Dec-09 02:11 092 9.4
2019-Dec-09 02:06 171 9.4
2019-Dec-09 02:01 198 9.4
2019-Dec-09 01:56 176 9.4
2019-Dec-09 01:51 236 9.4
2019-Dec-09 01:46 187 1 gusting 5 9.4
2019-Dec-09 01:41 197 0 gusting 5 9.4
2019-Dec-09 01:36 156 0 gusting 4 9.4
2019-Dec-09 01:31 207 0 gusting 4 9.4
2019-Dec-09 01:26 210 0 gusting 4 9.4
2019-Dec-09 01:21 211 9.4
2019-Dec-09 01:16 183 0 gusting 2 9.4
2019-Dec-09 01:11 184 9.4
2019-Dec-09 01:06 180 9.4
2019-Dec-09 01:01 209 0 gusting 5 9.4
2019-Dec-09 00:56 207 1 gusting 5 9.4
2019-Dec-09 00:51 159 0 gusting 4 9.4
2019-Dec-09 00:46 202 0 gusting 4 9.4
2019-Dec-09 00:41 184 9.4
2019-Dec-09 00:36 240 9.4
2019-Dec-09 00:31 234 0 gusting 2 9.4
2019-Dec-09 00:26 211 0 gusting 2 10.0
2019-Dec-09 00:21 200 0 gusting 5 10.0
2019-Dec-09 00:16 245 0 gusting 5 10.0
2019-Dec-09 00:11 202 1 gusting 5 10.0
2019-Dec-09 00:06 224 0 gusting 5 10.0
2019-Dec-09 00:01 246 0 gusting 5 10.0
2019-Dec-08 23:56 214 0 gusting 5 10.0
2019-Dec-08 23:51 212 0 gusting 4 10.0
2019-Dec-08 23:46 173 0 gusting 5 10.0
2019-Dec-08 23:41 173 10.0
2019-Dec-08 23:36 208 0 gusting 2 10.6
2019-Dec-08 23:31 214 0 gusting 2 10.0
2019-Dec-08 23:26 188 0 gusting 2 10.0
2019-Dec-08 23:21 173 0 gusting 2 10.6
2019-Dec-08 23:16 204 10.6
2019-Dec-08 23:11 184 0 gusting 2 10.6
2019-Dec-08 23:06 144 10.6
2019-Dec-08 23:01 172 11.1